Time,TemperatureF,DewpointF,PressureIn,WindDirection,WindDirectionDegrees,WindSpeedMPH,WindSpeedGustMPH,Humidity,HourlyPrecipIn,Conditions,Clouds,dailyrainin,SoftwareType,DateUTC
2013-12-04 00:00:00,35.1,34.9,29.69,East,90,8.0,11.0,99,0.01,,,0.39,meteohub,2013-12-04 06:00:00,
2013-12-04 00:05:00,35.1,34.9,29.69,East,90,8.0,11.0,99,0.01,,,0.00,meteohub,2013-12-04 06:05:00,
2013-12-04 00:10:00,35.1,34.9,29.70,NE,45,5.0,11.0,99,0.01,,,0.00,meteohub,2013-12-04 06:10:00,
2013-12-04 00:16:00,35.1,34.9,29.70,NE,45,7.0,8.0,99,0.01,,,0.00,meteohub,2013-12-04 06:16:00,
2013-12-04 00:21:00,35.1,34.9,29.69,East,90,12.0,12.0,99,0.01,,,0.00,meteohub,2013-12-04 06:21:00,
2013-12-04 00:26:00,35.1,34.9,29.69,NE,45,8.0,12.0,99,0.01,,,0.00,meteohub,2013-12-04 06:26:00,
2013-12-04 00:31:00,35.1,34.9,29.69,East,90,8.0,12.0,99,0.01,,,0.00,meteohub,2013-12-04 06:31:00,
2013-12-04 00:36:00,35.1,34.9,29.69,NE,45,11.0,12.0,99,0.01,,,0.00,meteohub,2013-12-04 06:36:00,
2013-12-04 00:41:00,34.9,34.7,29.70,NE,45,10.0,12.0,99,0.00,,,0.00,meteohub,2013-12-04 06:41:00,
2013-12-04 00:46:00,34.9,34.7,29.70,NE,45,8.0,12.0,99,0.00,,,0.00,meteohub,2013-12-04 06:46:00,
2013-12-04 00:51:00,34.9,34.7,29.70,NE,45,7.0,12.0,99,0.00,,,0.00,meteohub,2013-12-04 06:51:00,
2013-12-04 00:56:00,34.7,34.5,29.70,NE,45,8.0,11.0,99,0.00,,,0.00,meteohub,2013-12-04 06:56:00,
2013-12-04 01:01:00,34.7,34.5,29.69,NE,45,7.0,9.0,99,0.00,,,0.00,meteohub,2013-12-04 07:01:00,
2013-12-04 01:06:00,34.7,34.5,29.70,NE,45,7.0,11.0,99,0.00,,,0.00,meteohub,2013-12-04 07:06:00,
2013-12-04 01:11:00,34.7,34.5,29.69,NE,45,8.0,11.0,99,0.00,,,0.00,meteohub,2013-12-04 07:11:00,
2013-12-04 01:16:00,34.7,34.5,29.69,NE,45,7.0,9.0,99,0.00,,,0.00,meteohub,2013-12-04 07:16:00,
2013-12-04 01:21:00,34.7,34.5,29.70,NE,45,8.0,9.0,99,0.00,,,0.00,meteohub,2013-12-04 07:21:00,
2013-12-04 01:26:00,34.7,34.5,29.70,NE,45,9.0,9.0,99,0.00,,,0.00,meteohub,2013-12-04 07:26:00,
2013-12-04 01:32:00,34.7,34.5,29.70,NE,45,8.0,9.0,99,0.00,,,0.00,meteohub,2013-12-04 07:32:00,
2013-12-04 01:37:00,34.7,34.5,29.70,NE,45,8.0,9.0,99,0.00,,,0.00,meteohub,2013-12-04 07:37:00,
2013-12-04 01:42:00,34.7,34.5,29.70,NE,45,8.0,9.0,99,0.00,,,0.00,meteohub,2013-12-04 07:42:00,
2013-12-04 01:47:00,34.7,34.5,29.70,NE,45,8.0,9.0,99,0.00,,,0.00,meteohub,2013-12-04 07:47:00,
2013-12-04 01:52:00,34.7,34.5,29.70,NE,45,8.0,11.0,99,0.00,,,0.00,meteohub,2013-12-04 07:52:00,
2013-12-04 01:57:00,34.7,34.5,29.70,NE,45,8.0,11.0,99,0.00,,,0.00,meteohub,2013-12-04 07:57:00,
2013-12-04 02:02:00,34.7,34.5,29.70,NE,45,9.0,11.0,99,0.00,,,0.00,meteohub,2013-12-04 08:02:00,
2013-12-04 02:08:00,34.7,34.5,29.70,NE,45,8.0,11.0,99,0.00,,,0.00,meteohub,2013-12-04 08:08:00,
2013-12-04 02:13:00,34.7,34.5,29.69,NE,45,8.0,10.0,99,0.00,,,0.00,meteohub,2013-12-04 08:13:00,
2013-12-04 02:18:00,34.7,34.5,29.70,NE,45,9.0,10.0,99,0.01,,,0.01,meteohub,2013-12-04 08:18:00,
2013-12-04 02:23:00,34.7,34.5,29.69,NE,45,9.0,10.0,99,0.01,,,0.01,meteohub,2013-12-04 08:23:00,
2013-12-04 02:29:00,34.7,34.5,29.69,NE,45,9.0,10.0,99,0.01,,,0.01,meteohub,2013-12-04 08:29:00,
2013-12-04 02:34:00,34.7,34.5,29.68,East,90,9.0,10.0,99,0.01,,,0.01,meteohub,2013-12-04 08:34:00,
2013-12-04 02:39:00,34.7,34.5,29.68,NE,45,11.0,11.0,99,0.01,,,0.01,meteohub,2013-12-04 08:39:00,
2013-12-04 02:44:00,34.7,34.5,29.68,East,90,10.0,10.0,99,0.01,,,0.01,meteohub,2013-12-04 08:44:00,
2013-12-04 02:49:00,34.7,34.5,29.68,NE,45,8.0,12.0,99,0.01,,,0.01,meteohub,2013-12-04 08:49:00,
2013-12-04 02:54:00,34.9,34.7,29.68,NE,45,9.0,12.0,99,0.01,,,0.01,meteohub,2013-12-04 08:54:00,
2013-12-04 02:59:00,34.9,34.7,29.68,NE,45,8.0,12.0,99,0.01,,,0.01,meteohub,2013-12-04 08:59:00,
2013-12-04 03:04:00,34.9,34.7,29.68,NE,45,7.0,10.0,99,0.01,,,0.01,meteohub,2013-12-04 09:04:00,
2013-12-04 03:09:00,34.9,34.7,29.68,East,90,9.0,10.0,99,0.01,,,0.01,meteohub,2013-12-04 09:09:00,
2013-12-04 03:14:00,34.9,34.7,29.68,East,90,9.0,10.0,99,0.00,,,0.01,meteohub,2013-12-04 09:14:00,
2013-12-04 03:19:00,34.9,34.7,29.68,NE,45,8.0,10.0,99,0.00,,,0.01,meteohub,2013-12-04 09:19:00,
2013-12-04 03:24:00,34.9,34.7,29.68,East,90,8.0,9.0,99,0.00,,,0.01,meteohub,2013-12-04 09:24:00,
2013-12-04 03:29:00,34.9,34.7,29.67,East,90,10.0,10.0,99,0.00,,,0.01,meteohub,2013-12-04 09:29:00,
2013-12-04 03:35:00,34.9,34.7,29.67,East,90,8.0,10.0,99,0.00,,,0.01,meteohub,2013-12-04 09:35:00,
2013-12-04 03:40:00,34.9,34.7,29.66,East,90,7.0,10.0,99,0.00,,,0.01,meteohub,2013-12-04 09:40:00,
2013-12-04 03:45:00,34.9,34.7,29.66,East,90,9.0,10.0,99,0.00,,,0.01,meteohub,2013-12-04 09:45:00,
2013-12-04 03:50:00,35.1,34.9,29.67,NE,45,6.0,9.0,99,0.00,,,0.01,meteohub,2013-12-04 09:50:00,
2013-12-04 03:55:00,35.1,34.9,29.66,NE,45,7.0,9.0,99,0.00,,,0.01,meteohub,2013-12-04 09:55:00,
2013-12-04 04:00:00,35.1,34.9,29.65,East,90,6.0,8.0,99,0.00,,,0.01,meteohub,2013-12-04 10:00:00,
2013-12-04 04:05:00,35.1,34.9,29.65,NE,45,9.0,9.0,99,0.00,,,0.01,meteohub,2013-12-04 10:05:00,
2013-12-04 04:10:00,35.2,35.1,29.65,East,90,10.0,11.0,99,0.00,,,0.01,meteohub,2013-12-04 10:10:00,
2013-12-04 04:15:00,35.2,35.1,29.65,NE,45,8.0,11.0,99,0.00,,,0.01,meteohub,2013-12-04 10:15:00,
2013-12-04 04:20:00,35.2,35.1,29.65,NE,45,8.0,11.0,99,0.00,,,0.01,meteohub,2013-12-04 10:20:00,
2013-12-04 04:25:00,35.1,34.9,29.66,East,90,7.0,10.0,99,0.00,,,0.01,meteohub,2013-12-04 10:25:00,
2013-12-04 04:30:00,35.2,35.1,29.65,East,90,8.0,8.0,99,0.00,,,0.01,meteohub,2013-12-04 10:30:00,
2013-12-04 04:35:00,35.4,35.2,29.65,East,90,8.0,8.0,99,0.00,,,0.01,meteohub,2013-12-04 10:35:00,
2013-12-04 04:40:00,35.4,35.2,29.65,East,90,11.0,11.0,99,0.00,,,0.01,meteohub,2013-12-04 10:40:00,
2013-12-04 04:45:00,35.6,35.4,29.64,East,90,8.0,11.0,99,0.00,,,0.01,meteohub,2013-12-04 10:45:00,
2013-12-04 04:51:00,35.6,35.4,29.65,East,90,8.0,11.0,99,0.00,,,0.01,meteohub,2013-12-04 10:51:00,
2013-12-04 04:56:00,35.6,35.4,29.64,East,90,7.0,11.0,99,0.00,,,0.01,meteohub,2013-12-04 10:56:00,
2013-12-04 05:01:00,35.6,35.4,29.64,East,90,9.0,11.0,99,0.00,,,0.01,meteohub,2013-12-04 11:01:00,
2013-12-04 05:06:00,35.6,35.4,29.64,East,90,9.0,11.0,99,0.00,,,0.01,meteohub,2013-12-04 11:06:00,
2013-12-04 05:11:00,35.6,35.4,29.64,East,90,8.0,11.0,99,0.00,,,0.01,meteohub,2013-12-04 11:11:00,
2013-12-04 05:16:00,35.6,35.4,29.64,East,90,7.0,10.0,99,0.00,,,0.01,meteohub,2013-12-04 11:16:00,
2013-12-04 05:21:00,35.6,35.4,29.64,East,90,8.0,10.0,99,0.00,,,0.01,meteohub,2013-12-04 11:21:00,
2013-12-04 05:26:00,35.6,35.4,29.64,East,90,5.0,10.0,99,0.00,,,0.01,meteohub,2013-12-04 11:26:00,
2013-12-04 05:31:00,35.8,35.6,29.65,ENE,68,5.0,8.0,99,0.00,,,0.01,meteohub,2013-12-04 11:31:00,
2013-12-04 05:36:00,35.8,35.6,29.65,NE,45,6.0,8.0,99,0.00,,,0.01,meteohub,2013-12-04 11:36:00,
2013-12-04 05:41:00,35.8,35.6,29.65,NE,45,8.0,8.0,99,0.00,,,0.01,meteohub,2013-12-04 11:41:00,
2013-12-04 05:46:00,35.8,35.6,29.66,NE,45,8.0,8.0,99,0.00,,,0.01,meteohub,2013-12-04 11:46:00,
2013-12-04 05:51:00,36.0,35.8,29.66,NE,45,8.0,8.0,99,0.00,,,0.01,meteohub,2013-12-04 11:51:00,
2013-12-04 05:57:00,36.1,36.0,29.66,NNE,23,6.0,8.0,99,0.00,,,0.01,meteohub,2013-12-04 11:57:00,
2013-12-04 06:02:00,36.1,36.0,29.67,NE,45,5.0,8.0,99,0.00,,,0.01,meteohub,2013-12-04 12:02:00,
2013-12-04 06:07:00,36.1,36.0,29.66,NE,45,5.0,8.0,99,0.00,,,0.01,meteohub,2013-12-04 12:07:00,
2013-12-04 06:12:00,35.8,35.6,29.67,North,0,7.0,7.0,99,0.00,,,0.01,meteohub,2013-12-04 12:12:00,
2013-12-04 06:17:00,35.6,35.4,29.66,North,0,8.0,11.0,99,0.00,,,0.01,meteohub,2013-12-04 12:17:00,
2013-12-04 06:22:00,35.4,35.2,29.66,North,0,9.0,11.0,99,0.00,,,0.01,meteohub,2013-12-04 12:22:00,
2013-12-04 06:27:00,35.2,35.1,29.66,NNE,23,10.0,11.0,99,0.00,,,0.01,meteohub,2013-12-04 12:27:00,
2013-12-04 06:32:00,35.1,34.9,29.66,NE,45,11.0,11.0,99,0.00,,,0.01,meteohub,2013-12-04 12:32:00,
2013-12-04 06:37:00,35.1,34.9,29.66,NE,45,9.0,11.0,99,0.00,,,0.01,meteohub,2013-12-04 12:37:00,
2013-12-04 06:42:00,35.2,35.1,29.66,NE,45,8.0,11.0,99,0.00,,,0.01,meteohub,2013-12-04 12:42:00,
2013-12-04 06:47:00,35.1,34.9,29.66,NE,45,8.0,11.0,99,0.00,,,0.01,meteohub,2013-12-04 12:47:00,
2013-12-04 06:52:00,35.1,34.9,29.65,NE,45,9.0,11.0,99,0.00,,,0.01,meteohub,2013-12-04 12:52:00,
2013-12-04 06:57:00,35.1,34.9,29.66,NE,45,8.0,9.0,99,0.00,,,0.01,meteohub,2013-12-04 12:57:00,
2013-12-04 07:02:00,35.1,34.9,29.65,East,90,6.0,9.0,99,0.00,,,0.01,meteohub,2013-12-04 13:02:00,
2013-12-04 07:07:00,35.1,34.9,29.65,East,90,8.0,9.0,99,0.00,,,0.01,meteohub,2013-12-04 13:07:00,
2013-12-04 07:12:00,35.1,34.9,29.65,East,90,7.0,8.0,99,0.00,,,0.01,meteohub,2013-12-04 13:12:00,
2013-12-04 07:17:00,35.1,34.9,29.65,ENE,68,9.0,9.0,99,0.00,,,0.01,meteohub,2013-12-04 13:17:00,
2013-12-04 07:22:00,35.1,34.9,29.65,ENE,68,11.0,11.0,99,0.00,,,0.01,meteohub,2013-12-04 13:22:00,
2013-12-04 07:27:00,35.2,35.1,29.64,East,90,9.0,11.0,99,0.00,,,0.01,meteohub,2013-12-04 13:27:00,
2013-12-04 07:32:00,35.2,35.1,29.64,East,90,8.0,11.0,99,0.00,,,0.01,meteohub,2013-12-04 13:32:00,
2013-12-04 07:37:00,35.2,35.1,29.64,East,90,8.0,11.0,99,0.00,,,0.01,meteohub,2013-12-04 13:37:00,
2013-12-04 07:42:00,35.4,35.2,29.64,East,90,9.0,9.0,99,0.00,,,0.01,meteohub,2013-12-04 13:42:00,
2013-12-04 07:47:00,35.4,35.2,29.64,East,90,7.0,9.0,99,0.00,,,0.01,meteohub,2013-12-04 13:47:00,
2013-12-04 07:52:00,35.4,35.2,29.64,East,90,8.0,9.0,99,0.00,,,0.01,meteohub,2013-12-04 13:52:00,
2013-12-04 07:57:00,35.4,35.2,29.64,NE,45,7.0,9.0,99,0.00,,,0.01,meteohub,2013-12-04 13:57:00,
2013-12-04 08:02:00,35.6,35.4,29.64,NE,45,8.0,8.0,99,0.00,,,0.01,meteohub,2013-12-04 14:02:00,
2013-12-04 08:07:00,35.6,35.4,29.64,NE,45,8.0,8.0,99,0.00,,,0.01,meteohub,2013-12-04 14:07:00,
2013-12-04 08:12:00,35.6,35.4,29.63,East,90,8.0,8.0,99,0.00,,,0.01,meteohub,2013-12-04 14:12:00,
2013-12-04 08:17:00,35.6,35.4,29.64,East,90,7.0,8.0,99,0.00,,,0.01,meteohub,2013-12-04 14:17:00,
2013-12-04 08:22:00,35.8,35.6,29.64,East,90,6.0,8.0,99,0.00,,,0.01,meteohub,2013-12-04 14:22:00,
2013-12-04 08:27:00,35.8,35.6,29.63,East,90,7.0,8.0,99,0.00,,,0.01,meteohub,2013-12-04 14:27:00,
2013-12-04 08:32:00,36.1,36.0,29.64,East,90,8.0,8.0,99,0.00,,,0.01,meteohub,2013-12-04 14:32:00,
2013-12-04 08:37:00,36.3,36.1,29.64,East,90,6.0,8.0,99,0.00,,,0.01,meteohub,2013-12-04 14:37:00,
2013-12-04 08:42:00,36.3,36.1,29.64,East,90,6.0,8.0,99,0.00,,,0.01,meteohub,2013-12-04 14:42:00,
2013-12-04 08:47:00,36.5,36.3,29.64,East,90,8.0,8.0,99,0.00,,,0.01,meteohub,2013-12-04 14:47:00,
2013-12-04 08:52:00,36.5,36.3,29.63,East,90,8.0,8.0,99,0.00,,,0.01,meteohub,2013-12-04 14:52:00,
2013-12-04 08:57:00,36.7,36.5,29.63,East,90,8.0,8.0,99,0.00,,,0.01,meteohub,2013-12-04 14:57:00,
2013-12-04 09:02:00,36.7,36.5,29.64,East,90,9.0,9.0,99,0.00,,,0.01,meteohub,2013-12-04 15:02:00,
2013-12-04 09:07:00,36.7,36.5,29.64,East,90,9.0,9.0,99,0.00,,,0.01,meteohub,2013-12-04 15:07:00,
2013-12-04 09:12:00,37.0,36.9,29.64,East,90,7.0,9.0,99,0.00,,,0.01,meteohub,2013-12-04 15:12:00,
2013-12-04 09:17:00,37.2,37.0,29.64,East,90,6.0,9.0,99,0.01,,,0.02,meteohub,2013-12-04 15:17:00,
2013-12-04 09:22:00,37.2,37.0,29.63,East,90,4.0,9.0,99,0.01,,,0.02,meteohub,2013-12-04 15:22:00,
2013-12-04 09:27:00,37.4,37.2,29.64,East,90,5.0,8.0,99,0.01,,,0.02,meteohub,2013-12-04 15:27:00,
2013-12-04 09:32:00,37.4,37.2,29.64,East,90,7.0,8.0,99,0.01,,,0.02,meteohub,2013-12-04 15:32:00,
2013-12-04 09:37:00,37.6,37.4,29.64,East,90,7.0,8.0,99,0.01,,,0.02,meteohub,2013-12-04 15:37:00,
2013-12-04 09:42:00,37.8,37.6,29.64,East,90,6.0,8.0,99,0.01,,,0.02,meteohub,2013-12-04 15:42:00,
2013-12-04 09:47:00,37.8,37.6,29.63,East,90,8.0,8.0,99,0.01,,,0.02,meteohub,2013-12-04 15:47:00,
2013-12-04 09:52:00,37.9,37.8,29.63,East,90,7.0,8.0,99,0.01,,,0.02,meteohub,2013-12-04 15:52:00,
2013-12-04 09:57:00,37.9,37.8,29.63,East,90,6.0,8.0,99,0.01,,,0.02,meteohub,2013-12-04 15:57:00,
2013-12-04 10:02:00,38.1,37.9,29.63,East,90,7.0,8.0,99,0.01,,,0.02,meteohub,2013-12-04 16:02:00,
2013-12-04 10:08:00,38.3,38.1,29.63,NE,45,8.0,8.0,99,0.01,,,0.02,meteohub,2013-12-04 16:08:00,
2013-12-04 10:13:00,38.3,38.1,29.63,East,90,5.0,8.0,99,0.00,,,0.02,meteohub,2013-12-04 16:13:00,
2013-12-04 10:18:00,38.3,38.1,29.63,East,90,6.0,8.0,99,0.00,,,0.02,meteohub,2013-12-04 16:18:00,
2013-12-04 10:23:00,38.3,38.1,29.62,East,90,6.0,8.0,99,0.00,,,0.02,meteohub,2013-12-04 16:23:00,
2013-12-04 10:28:00,38.3,38.1,29.62,East,90,4.0,7.0,99,0.00,,,0.02,meteohub,2013-12-04 16:28:00,
2013-12-04 10:33:00,38.5,38.3,29.62,East,90,5.0,7.0,99,0.00,,,0.02,meteohub,2013-12-04 16:33:00,
2013-12-04 10:38:00,38.5,38.3,29.62,East,90,5.0,7.0,99,0.00,,,0.02,meteohub,2013-12-04 16:38:00,
2013-12-04 10:43:00,38.5,38.3,29.62,ENE,68,4.0,6.0,99,0.00,,,0.02,meteohub,2013-12-04 16:43:00,
2013-12-04 10:48:00,38.7,38.5,29.61,East,90,5.0,6.0,99,0.00,,,0.02,meteohub,2013-12-04 16:48:00,
2013-12-04 10:54:00,38.7,38.5,29.61,East,90,4.0,6.0,99,0.00,,,0.02,meteohub,2013-12-04 16:54:00,
2013-12-04 10:59:00,38.8,38.7,29.61,East,90,4.0,6.0,99,0.00,,,0.02,meteohub,2013-12-04 16:59:00,
2013-12-04 11:04:00,38.8,38.7,29.60,ENE,68,4.0,6.0,99,0.00,,,0.02,meteohub,2013-12-04 17:04:00,
2013-12-04 11:09:00,39.0,38.8,29.59,NE,45,7.0,7.0,99,0.00,,,0.02,meteohub,2013-12-04 17:09:00,
2013-12-04 11:14:00,39.2,39.0,29.58,NE,45,8.0,8.0,99,0.00,,,0.02,meteohub,2013-12-04 17:14:00,
2013-12-04 11:19:00,39.2,39.0,29.58,East,90,7.0,8.0,99,0.00,,,0.02,meteohub,2013-12-04 17:19:00,
2013-12-04 11:24:00,39.4,39.2,29.57,East,90,8.0,8.0,99,0.00,,,0.02,meteohub,2013-12-04 17:24:00,
2013-12-04 11:29:00,39.6,39.4,29.56,East,90,8.0,8.0,99,0.00,,,0.02,meteohub,2013-12-04 17:29:00,
2013-12-04 11:34:00,39.6,39.4,29.56,East,90,7.0,8.0,99,0.00,,,0.02,meteohub,2013-12-04 17:34:00,
2013-12-04 11:39:00,39.6,39.4,29.56,East,90,7.0,8.0,99,0.00,,,0.02,meteohub,2013-12-04 17:39:00,
2013-12-04 11:44:00,39.7,39.6,29.56,NE,45,4.0,8.0,99,0.00,,,0.02,meteohub,2013-12-04 17:44:00,
2013-12-04 11:49:00,39.9,39.7,29.55,East,90,4.0,8.0,99,0.00,,,0.02,meteohub,2013-12-04 17:49:00,
2013-12-04 11:54:00,40.1,39.9,29.55,East,90,4.0,8.0,99,0.00,,,0.02,meteohub,2013-12-04 17:54:00,
2013-12-04 11:59:00,40.1,39.9,29.55,SE,135,4.0,5.0,99,0.00,,,0.02,meteohub,2013-12-04 17:59:00,
2013-12-04 12:05:00,40.1,39.9,29.55,SE,135,4.0,5.0,99,0.00,,,0.02,meteohub,2013-12-04 18:05:00,
2013-12-04 12:10:00,40.1,39.9,29.55,East,90,4.0,5.0,99,0.00,,,0.02,meteohub,2013-12-04 18:10:00,
2013-12-04 12:15:00,40.3,40.1,29.55,East,90,4.0,5.0,99,0.00,,,0.02,meteohub,2013-12-04 18:15:00,
2013-12-04 12:20:00,40.3,40.1,29.54,East,90,4.0,4.0,99,0.00,,,0.02,meteohub,2013-12-04 18:20:00,
2013-12-04 12:25:00,40.5,40.3,29.54,ESE,113,4.0,5.0,99,0.00,,,0.02,meteohub,2013-12-04 18:25:00,
2013-12-04 12:30:00,40.6,40.5,29.54,SE,135,5.0,6.0,99,0.00,,,0.02,meteohub,2013-12-04 18:30:00,
2013-12-04 12:35:00,40.6,40.5,29.53,East,90,4.0,6.0,99,0.00,,,0.02,meteohub,2013-12-04 18:35:00,
2013-12-04 12:40:00,40.8,40.6,29.53,SE,135,3.0,6.0,99,0.00,,,0.02,meteohub,2013-12-04 18:40:00,
2013-12-04 12:45:00,40.8,40.6,29.53,SE,135,2.0,5.0,99,0.00,,,0.02,meteohub,2013-12-04 18:45:00,
2013-12-04 12:50:00,41.0,40.8,29.52,SE,135,3.0,4.0,99,0.00,,,0.02,meteohub,2013-12-04 18:50:00,
2013-12-04 12:55:00,41.2,41.0,29.52,SE,135,3.0,4.0,99,0.00,,,0.02,meteohub,2013-12-04 18:55:00,
2013-12-04 13:00:00,41.4,41.2,29.51,SE,135,3.0,4.0,99,0.00,,,0.02,meteohub,2013-12-04 19:00:00,
2013-12-04 13:05:00,41.4,41.2,29.50,SE,135,3.0,4.0,99,0.00,,,0.02,meteohub,2013-12-04 19:05:00,
2013-12-04 13:10:00,41.5,41.4,29.49,SE,135,4.0,4.0,99,0.00,,,0.02,meteohub,2013-12-04 19:10:00,
2013-12-04 13:15:00,41.7,41.5,29.50,SE,135,4.0,4.0,99,0.00,,,0.02,meteohub,2013-12-04 19:15:00,
2013-12-04 13:21:00,41.9,41.7,29.49,SE,135,4.0,6.0,99,0.00,,,0.02,meteohub,2013-12-04 19:21:00,
2013-12-04 13:26:00,42.1,41.9,29.49,East,90,6.0,6.0,99,0.00,,,0.02,meteohub,2013-12-04 19:26:00,
2013-12-04 13:31:00,42.1,41.9,29.49,SE,135,5.0,6.0,99,0.00,,,0.02,meteohub,2013-12-04 19:31:00,
2013-12-04 13:36:00,42.3,42.1,29.48,SE,135,5.0,6.0,99,0.00,,,0.02,meteohub,2013-12-04 19:36:00,
2013-12-04 13:41:00,42.4,42.3,29.48,South,180,5.0,6.0,99,0.00,,,0.02,meteohub,2013-12-04 19:41:00,
2013-12-04 13:46:00,42.8,42.6,29.48,SE,135,5.0,6.0,99,0.00,,,0.02,meteohub,2013-12-04 19:46:00,
2013-12-04 13:51:00,43.2,43.0,29.47,SSW,203,5.0,7.0,99,0.00,,,0.02,meteohub,2013-12-04 19:51:00,
2013-12-04 13:56:00,43.3,43.2,29.47,South,180,6.0,7.0,99,0.00,,,0.02,meteohub,2013-12-04 19:56:00,
2013-12-04 14:01:00,43.3,43.2,29.47,SE,135,6.0,8.0,99,0.00,,,0.02,meteohub,2013-12-04 20:01:00,
2013-12-04 14:06:00,43.3,43.2,29.46,SE,135,6.0,8.0,99,0.00,,,0.02,meteohub,2013-12-04 20:06:00,
2013-12-04 14:11:00,43.9,43.7,29.46,East,90,8.0,8.0,99,0.00,,,0.02,meteohub,2013-12-04 20:11:00,
2013-12-04 14:17:00,44.1,43.9,29.45,SE,135,6.0,9.0,99,0.00,,,0.02,meteohub,2013-12-04 20:17:00,
2013-12-04 14:22:00,44.2,44.1,29.46,SW,225,6.0,9.0,99,0.00,,,0.02,meteohub,2013-12-04 20:22:00,
2013-12-04 14:27:00,44.4,44.2,29.45,SE,135,8.0,11.0,99,0.00,,,0.02,meteohub,2013-12-04 20:27:00,
2013-12-04 14:32:00,44.6,44.4,29.45,South,180,10.0,11.0,99,0.00,,,0.02,meteohub,2013-12-04 20:32:00,
2013-12-04 14:37:00,44.6,44.4,29.45,South,180,11.0,11.0,99,0.00,,,0.02,meteohub,2013-12-04 20:37:00,
2013-12-04 14:42:00,44.6,44.4,29.45,SE,135,8.0,12.0,99,0.00,,,0.02,meteohub,2013-12-04 20:42:00,
2013-12-04 14:47:00,44.6,44.4,29.46,South,180,10.0,12.0,99,0.00,,,0.02,meteohub,2013-12-04 20:47:00,
2013-12-04 14:52:00,44.6,44.4,29.45,South,180,7.0,12.0,99,0.00,,,0.02,meteohub,2013-12-04 20:52:00,
2013-12-04 14:57:00,44.6,44.4,29.45,South,180,7.0,12.0,99,0.00,,,0.02,meteohub,2013-12-04 20:57:00,
2013-12-04 15:02:00,44.8,44.6,29.45,South,180,11.0,11.0,99,0.00,,,0.02,meteohub,2013-12-04 21:02:00,
2013-12-04 15:07:00,44.8,44.6,29.45,South,180,11.0,11.0,99,0.00,,,0.02,meteohub,2013-12-04 21:07:00,
2013-12-04 15:12:00,45.1,45.0,29.45,SSW,203,4.0,11.0,99,0.00,,,0.02,meteohub,2013-12-04 21:12:00,
2013-12-04 15:17:00,45.1,45.0,29.45,SE,135,8.0,12.0,99,0.00,,,0.02,meteohub,2013-12-04 21:17:00,
2013-12-04 15:22:00,45.3,45.1,29.45,SW,225,9.0,12.0,99,0.00,,,0.02,meteohub,2013-12-04 21:22:00,
2013-12-04 15:27:00,45.5,45.3,29.45,SE,135,9.0,11.0,99,0.00,,,0.02,meteohub,2013-12-04 21:27:00,
2013-12-04 15:32:00,45.9,45.7,29.45,South,180,9.0,13.0,99,0.00,,,0.02,meteohub,2013-12-04 21:32:00,
2013-12-04 15:37:00,46.0,45.9,29.45,South,180,9.0,13.0,99,0.00,,,0.02,meteohub,2013-12-04 21:37:00,
2013-12-04 15:42:00,46.0,45.9,29.45,SW,225,10.0,13.0,99,0.00,,,0.02,meteohub,2013-12-04 21:42:00,
2013-12-04 15:47:00,46.0,45.9,29.45,SSW,203,11.0,13.0,99,0.00,,,0.02,meteohub,2013-12-04 21:47:00,
2013-12-04 15:52:00,46.2,46.0,29.45,South,180,11.0,11.0,99,0.00,,,0.02,meteohub,2013-12-04 21:52:00,
2013-12-04 15:57:00,46.0,45.9,29.45,SW,225,7.0,11.0,99,0.00,,,0.02,meteohub,2013-12-04 21:57:00,
2013-12-04 16:02:00,46.0,45.9,29.45,SSW,203,13.0,13.0,99,0.00,,,0.02,meteohub,2013-12-04 22:02:00,
2013-12-04 16:07:00,46.0,45.9,29.45,SSW,203,13.0,13.0,99,0.00,,,0.02,meteohub,2013-12-04 22:07:00,
2013-12-04 16:12:00,46.2,46.0,29.45,SW,225,9.0,13.0,99,0.00,,,0.02,meteohub,2013-12-04 22:12:00,
2013-12-04 16:17:00,46.0,45.9,29.45,SW,225,11.0,14.0,99,0.00,,,0.02,meteohub,2013-12-04 22:17:00,
2013-12-04 16:22:00,46.2,46.0,29.45,SW,225,11.0,14.0,99,0.00,,,0.02,meteohub,2013-12-04 22:22:00,
2013-12-04 16:27:00,46.4,46.2,29.45,South,180,11.0,14.0,99,0.00,,,0.02,meteohub,2013-12-04 22:27:00,
2013-12-04 16:32:00,46.4,46.2,29.45,SW,225,11.0,15.0,99,0.00,,,0.02,meteohub,2013-12-04 22:32:00,
2013-12-04 16:37:00,46.2,46.0,29.45,SW,225,8.0,15.0,99,0.00,,,0.02,meteohub,2013-12-04 22:37:00,
2013-12-04 16:42:00,46.4,46.2,29.44,South,180,11.0,11.0,99,0.00,,,0.02,meteohub,2013-12-04 22:42:00,
2013-12-04 16:47:00,46.6,46.4,29.44,SW,225,11.0,12.0,99,0.00,,,0.02,meteohub,2013-12-04 22:47:00,
2013-12-04 16:52:00,46.6,46.4,29.45,SW,225,9.0,13.0,99,0.00,,,0.02,meteohub,2013-12-04 22:52:00,
2013-12-04 16:57:00,46.8,46.6,29.44,South,180,9.0,13.0,99,0.00,,,0.02,meteohub,2013-12-04 22:57:00,
2013-12-04 17:02:00,46.8,46.6,29.44,SW,225,9.0,13.0,99,0.00,,,0.02,meteohub,2013-12-04 23:02:00,
2013-12-04 17:07:00,46.8,46.6,29.44,SW,225,9.0,11.0,99,0.00,,,0.02,meteohub,2013-12-04 23:07:00,
2013-12-04 17:12:00,47.1,46.9,29.44,SW,225,11.0,11.0,99,0.00,,,0.02,meteohub,2013-12-04 23:12:00,
2013-12-04 17:17:00,47.1,46.9,29.44,SSW,203,8.0,13.0,99,0.00,,,0.02,meteohub,2013-12-04 23:17:00,
2013-12-04 17:22:00,47.1,46.9,29.45,SW,225,11.0,14.0,99,0.00,,,0.02,meteohub,2013-12-04 23:22:00,
2013-12-04 17:27:00,47.1,46.9,29.45,NW,315,13.0,15.0,99,0.00,,,0.02,meteohub,2013-12-04 23:27:00,
2013-12-04 17:32:00,47.1,46.9,29.45,SW,225,15.0,15.0,99,0.00,,,0.02,meteohub,2013-12-04 23:32:00,
2013-12-04 17:37:00,47.3,47.1,29.45,WNW,293,14.0,15.0,99,0.00,,,0.02,meteohub,2013-12-04 23:37:00,
2013-12-04 17:42:00,47.3,47.1,29.44,SW,225,11.0,15.0,99,0.00,,,0.02,meteohub,2013-12-04 23:42:00,
2013-12-04 17:47:00,47.1,46.9,29.44,SW,225,9.0,15.0,99,0.00,,,0.02,meteohub,2013-12-04 23:47:00,
2013-12-04 17:52:00,47.3,47.1,29.44,SW,225,15.0,16.0,99,0.00,,,0.02,meteohub,2013-12-04 23:52:00,
2013-12-04 17:57:00,47.3,47.1,29.44,SW,225,17.0,17.0,99,0.00,,,0.02,meteohub,2013-12-04 23:57:00,
2013-12-04 18:02:00,47.3,47.1,29.44,SW,225,15.0,17.0,99,0.00,,,0.02,meteohub,2013-12-05 00:02:00,
2013-12-04 18:07:00,47.3,47.1,29.44,SW,225,15.0,17.0,99,0.00,,,0.02,meteohub,2013-12-05 00:07:00,
2013-12-04 18:12:00,47.3,47.1,29.43,SSW,203,13.0,17.0,99,0.00,,,0.02,meteohub,2013-12-05 00:12:00,
2013-12-04 18:17:00,47.5,47.3,29.43,SW,225,16.0,16.0,99,0.00,,,0.02,meteohub,2013-12-05 00:17:00,
2013-12-04 18:22:00,47.3,47.1,29.44,SW,225,12.0,16.0,99,0.00,,,0.02,meteohub,2013-12-05 00:22:00,
2013-12-04 18:27:00,47.5,47.3,29.44,SW,225,17.0,20.0,99,0.00,,,0.02,meteohub,2013-12-05 00:27:00,
2013-12-04 18:32:00,47.5,47.3,29.44,North,0,17.0,20.0,99,0.00,,,0.02,meteohub,2013-12-05 00:32:00,
2013-12-04 18:37:00,47.7,47.5,29.44,SW,225,18.0,20.0,99,0.00,,,0.02,meteohub,2013-12-05 00:37:00,
2013-12-04 18:42:00,47.7,47.5,29.44,West,270,22.0,22.0,99,0.00,,,0.02,meteohub,2013-12-05 00:42:00,
2013-12-04 18:47:00,47.7,47.5,29.45,NW,315,24.0,24.0,99,0.01,,,0.04,meteohub,2013-12-05 00:47:00,
2013-12-04 18:52:00,45.9,45.7,29.45,West,270,33.0,33.0,99,0.01,,,0.04,meteohub,2013-12-05 00:52:00,
2013-12-04 18:57:00,43.3,43.2,29.47,West,270,23.0,33.0,99,0.01,,,0.04,meteohub,2013-12-05 00:57:00,
2013-12-04 19:02:00,42.4,42.3,29.47,West,270,20.0,33.0,99,0.01,,,0.04,meteohub,2013-12-05 01:02:00,
2013-12-04 19:07:00,42.4,42.3,29.47,West,270,20.0,33.0,99,0.01,,,0.04,meteohub,2013-12-05 01:07:00,
2013-12-04 19:12:00,41.2,41.0,29.46,WNW,293,19.0,26.0,99,0.01,,,0.04,meteohub,2013-12-05 01:12:00,
2013-12-04 19:17:00,40.8,40.6,29.46,NW,315,20.0,22.0,99,0.01,,,0.04,meteohub,2013-12-05 01:17:00,
2013-12-04 19:22:00,40.5,40.3,29.47,NW,315,15.0,22.0,99,0.01,,,0.04,meteohub,2013-12-05 01:22:00,
2013-12-04 19:27:00,40.1,39.9,29.47,SW,225,16.0,22.0,99,0.01,,,0.04,meteohub,2013-12-05 01:27:00,
2013-12-04 19:32:00,40.1,39.9,29.47,SW,225,17.0,21.0,99,0.01,,,0.04,meteohub,2013-12-05 01:32:00,
2013-12-04 19:37:00,39.7,39.6,29.47,NNW,338,16.0,23.0,99,0.01,,,0.04,meteohub,2013-12-05 01:37:00,
2013-12-04 19:42:00,39.6,39.4,29.47,NW,315,17.0,23.0,99,0.01,,,0.04,meteohub,2013-12-05 01:42:00,
2013-12-04 19:47:00,39.2,38.5,29.47,West,270,23.0,23.0,97,0.00,,,0.04,meteohub,2013-12-05 01:47:00,
2013-12-04 19:52:00,38.7,36.5,29.47,West,270,20.0,23.0,92,0.00,,,0.04,meteohub,2013-12-05 01:52:00,
2013-12-04 19:57:00,38.1,35.4,29.48,WNW,293,25.0,25.0,90,0.00,,,0.04,meteohub,2013-12-05 01:57:00,
2013-12-04 20:02:00,37.9,35.1,29.48,West,270,17.0,27.0,89,0.00,,,0.04,meteohub,2013-12-05 02:02:00,
2013-12-04 20:07:00,37.9,35.1,29.48,West,270,17.0,27.0,89,0.00,,,0.04,meteohub,2013-12-05 02:07:00,
2013-12-04 20:12:00,37.6,34.0,29.48,West,270,21.0,27.0,87,0.00,,,0.04,meteohub,2013-12-05 02:12:00,
2013-12-04 20:17:00,37.4,33.6,29.49,West,270,13.0,25.0,86,0.00,,,0.04,meteohub,2013-12-05 02:17:00,
2013-12-04 20:22:00,37.4,33.6,29.49,WSW,248,15.0,25.0,86,0.00,,,0.04,meteohub,2013-12-05 02:22:00,
2013-12-04 20:27:00,37.0,33.3,29.49,NW,315,17.0,25.0,86,0.00,,,0.04,meteohub,2013-12-05 02:27:00,
2013-12-04 20:32:00,36.9,32.5,29.50,West,270,21.0,21.0,84,0.00,,,0.04,meteohub,2013-12-05 02:32:00,
2013-12-04 20:37:00,36.5,32.2,29.51,WSW,248,17.0,23.0,84,0.00,,,0.04,meteohub,2013-12-05 02:37:00,
2013-12-04 20:42:00,36.5,32.2,29.50,West,270,13.0,23.0,84,0.00,,,0.04,meteohub,2013-12-05 02:42:00,
2013-12-04 20:47:00,36.1,31.5,29.51,North,0,22.0,23.0,83,0.00,,,0.04,meteohub,2013-12-05 02:47:00,
2013-12-04 20:52:00,36.1,31.1,29.51,SW,225,21.0,24.0,82,0.00,,,0.04,meteohub,2013-12-05 02:52:00,
2013-12-04 20:57:00,35.8,30.6,29.52,West,270,25.0,25.0,81,0.00,,,0.04,meteohub,2013-12-05 02:57:00,
2013-12-04 21:02:00,35.6,30.0,29.53,NW,315,19.0,25.0,80,0.00,,,0.04,meteohub,2013-12-05 03:02:00,
2013-12-04 21:07:00,35.6,30.0,29.53,NW,315,19.0,26.0,80,0.00,,,0.04,meteohub,2013-12-05 03:07:00,
2013-12-04 21:12:00,35.1,29.5,29.54,West,270,19.0,26.0,80,0.00,,,0.04,meteohub,2013-12-05 03:12:00,
2013-12-04 21:17:00,34.9,29.1,29.54,WSW,248,21.0,23.0,79,0.00,,,0.04,meteohub,2013-12-05 03:17:00,
2013-12-04 21:22:00,34.7,28.9,29.54,NW,315,29.0,29.0,79,0.00,,,0.04,meteohub,2013-12-05 03:22:00,
2013-12-04 21:27:00,34.5,28.4,29.54,SW,225,19.0,29.0,78,0.01,,,0.05,meteohub,2013-12-05 03:27:00,
2013-12-04 21:32:00,34.3,27.9,29.54,West,270,24.0,29.0,77,0.01,,,0.05,meteohub,2013-12-05 03:32:00,
2013-12-04 21:37:00,34.2,27.1,29.54,SW,225,24.0,30.0,75,0.01,,,0.05,meteohub,2013-12-05 03:37:00,
2013-12-04 21:42:00,34.0,27.0,29.54,West,270,25.0,30.0,75,0.01,,,0.05,meteohub,2013-12-05 03:42:00,
2013-12-04 21:47:00,33.8,27.0,29.54,NW,315,18.0,30.0,76,0.01,,,0.05,meteohub,2013-12-05 03:47:00,
2013-12-04 21:52:00,33.6,27.5,29.55,NW,315,16.0,29.0,78,0.01,,,0.05,meteohub,2013-12-05 03:52:00,
2013-12-04 21:57:00,33.6,27.9,29.56,North,0,16.0,29.0,79,0.01,,,0.05,meteohub,2013-12-05 03:57:00,
2013-12-04 22:02:00,33.4,27.7,29.55,NW,315,14.0,21.0,79,0.01,,,0.05,meteohub,2013-12-05 04:02:00,
2013-12-04 22:07:00,33.4,27.7,29.56,NW,315,14.0,19.0,79,0.01,,,0.05,meteohub,2013-12-05 04:07:00,
2013-12-04 22:12:00,32.9,25.9,29.56,West,270,26.0,26.0,75,0.01,,,0.05,meteohub,2013-12-05 04:12:00,
2013-12-04 22:17:00,32.7,25.3,29.58,NNW,338,26.0,27.0,74,0.01,,,0.05,meteohub,2013-12-05 04:17:00,
2013-12-04 22:22:00,32.7,25.7,29.58,NW,315,17.0,29.0,75,0.01,,,0.05,meteohub,2013-12-05 04:22:00,
2013-12-04 22:27:00,32.4,24.6,29.58,NW,315,29.0,29.0,73,0.00,,,0.05,meteohub,2013-12-05 04:27:00,
2013-12-04 22:32:00,32.4,24.6,29.59,NNW,338,19.0,29.0,73,0.00,,,0.05,meteohub,2013-12-05 04:32:00,
2013-12-04 22:37:00,32.4,25.0,29.59,West,270,22.0,29.0,74,0.00,,,0.05,meteohub,2013-12-05 04:37:00,
2013-12-04 22:42:00,32.2,24.4,29.59,SW,225,20.0,29.0,73,0.00,,,0.05,meteohub,2013-12-05 04:42:00,
2013-12-04 22:47:00,32.0,24.6,29.60,West,270,18.0,30.0,74,0.00,,,0.05,meteohub,2013-12-05 04:47:00,
2013-12-04 22:52:00,32.0,24.3,29.60,NW,315,22.0,30.0,73,0.00,,,0.05,meteohub,2013-12-05 04:52:00,
2013-12-04 22:57:00,31.8,23.9,29.59,North,0,20.0,30.0,72,0.00,,,0.05,meteohub,2013-12-05 04:57:00,
2013-12-04 23:01:00,31.8,23.5,29.60,West,270,25.0,26.0,71,0.00,,,0.05,meteohub,2013-12-05 05:01:00,
2013-12-04 23:02:00,31.8,23.5,29.60,West,270,25.0,26.0,71,0.00,,,0.05,meteohub,2013-12-05 05:02:00,
2013-12-04 23:07:00,31.6,23.4,29.61,WSW,248,23.0,26.0,71,0.00,,,0.05,meteohub,2013-12-05 05:07:00,
2013-12-04 23:12:00,31.6,23.7,29.61,SW,225,17.0,26.0,72,0.00,,,0.05,meteohub,2013-12-05 05:12:00,
2013-12-04 23:17:00,31.6,23.9,29.61,NW,315,17.0,25.0,73,0.00,,,0.05,meteohub,2013-12-05 05:17:00,
2013-12-04 23:22:00,31.5,23.9,29.61,NW,315,24.0,25.0,73,0.00,,,0.05,meteohub,2013-12-05 05:22:00,
2013-12-04 23:27:00,31.5,24.1,29.62,West,270,16.0,24.0,74,0.00,,,0.05,meteohub,2013-12-05 05:27:00,
2013-12-04 23:32:00,31.5,24.4,29.62,NW,315,18.0,24.0,75,0.00,,,0.05,meteohub,2013-12-05 05:32:00,
2013-12-04 23:37:00,31.3,24.3,29.62,WSW,248,20.0,24.0,75,0.00,,,0.05,meteohub,2013-12-05 05:37:00,
2013-12-04 23:42:00,31.1,23.7,29.61,West,270,18.0,22.0,74,0.00,,,0.05,meteohub,2013-12-05 05:42:00,
2013-12-04 23:47:00,30.9,23.4,29.61,NW,315,24.0,24.0,73,0.00,,,0.05,meteohub,2013-12-05 05:47:00,
2013-12-04 23:52:00,30.9,23.0,29.61,West,270,28.0,28.0,72,0.00,,,0.05,meteohub,2013-12-05 05:52:00,
2013-12-04 23:57:00,30.9,23.0,29.61,West,270,28.0,28.0,72,0.00,,,0.05,meteohub,2013-12-05 05:57:00,